Smithfield, NC

6:20 PM EST on December 07, 2016 (GMT -0500)
Johnston County

Weather History for KJNX - February, 2014

Change the Weather History Date:

Saturday, February 22, 2014

  Actual Average Record
Temperature  
Mean Temperature 48 °F -  
Max Temperature 62 °F 61 °F 78 °F (2003)
Min Temperature 33 °F 36 °F 15 °F (1968)
Degree Days  
Heating Degree Days 18    
Moisture  
Dew Point 33 °F    
Average Humidity 63    
Maximum Humidity 100    
Minimum Humidity 22    
Precipitation  
Precipitation 0.00 in - - ()
Sea Level Pressure  
Sea Level Pressure 30.12 in    
Wind  
Wind Speed 0 mph (NE)    
Max Wind Speed 9 mph    
Max Gust Speed -    
Visibility 9 miles    
Events      
Averages and records for this station are not official NWS values.
T = Trace of Precipitation, MM = Missing Value Source: NWS Daily Summary

Daily Weather History Graph

Daily Weather History Graph

Search for Another Location

Airport or City:

Trip Planner

Search our weather history database for the weather conditions in past years. The results will help you decide how hot, cold, wet, or windy it might be!

Date:

Astronomy

Feb. 22, 2014 Rise Set
Actual Time 6:52 AM EST 6:02 PM EST
Civil Twilight 6:26 AM EST 6:28 PM EST
Nautical Twilight 5:56 AM EST 6:57 PM EST
Astronomical Twilight 5:27 AM EST 7:27 PM EST
Moon 12:40 AM EST (2/22) 11:17 AM EST (2/22)
Length of Visible Light 12h 01m
Length of Day
11h 10m
Waning Gibbous, 50% of the Moon is Illuminated
Feb 22
Waning Gibbous
Feb 22
Last Quarter
Mar 1
New
Mar 8
First Quarter
Mar 16
Full

Hourly Weather History & Observations

Time (EST) Temp. Dew Point Humidity Pressure Visibility Wind Dir Wind Speed Gust Speed Precip Events Conditions
12:15 AM - - N/A% 30.03 in 10.0 mi Calm Calm - N/A   Clear
12:35 AM 42.8 °F 42.8 °F 100% 30.04 in 10.0 mi Calm Calm - N/A   Clear
12:55 AM 41.0 °F 41.0 °F 100% 30.04 in 10.0 mi Calm Calm - N/A   Clear
1:15 AM 41.0 °F 41.0 °F 100% 30.04 in 10.0 mi Calm Calm - N/A   Clear
1:35 AM - - N/A% 30.04 in 10.0 mi Calm Calm - N/A   Clear
1:55 AM - - N/A% 30.05 in 1.0 mi Calm Calm - N/A   Unknown
2:15 AM - - N/A% 30.05 in 1.5 mi Calm Calm - N/A   Unknown
2:35 AM - - N/A% 30.05 in 7.0 mi Calm Calm - N/A   Clear
2:55 AM - - N/A% 30.05 in 10.0 mi Calm Calm - N/A   Clear
3:15 AM - - N/A% 30.06 in 10.0 mi Calm Calm - N/A   Clear
3:35 AM 37.4 °F 37.4 °F 100% 30.06 in 10.0 mi Calm Calm - N/A   Clear
3:55 AM 35.6 °F 35.6 °F 100% 30.07 in 10.0 mi Calm Calm - N/A   Clear
4:15 AM 35.6 °F 35.6 °F 100% 30.07 in 10.0 mi Calm Calm - N/A   Clear
4:35 AM 35.6 °F 35.6 °F 100% 30.09 in 10.0 mi Calm Calm - N/A   Clear
4:55 AM - - N/A% 30.10 in 10.0 mi Calm Calm - N/A   Clear
5:15 AM 35.6 °F 35.6 °F 100% 30.11 in 10.0 mi Calm Calm - N/A   Clear
5:35 AM 33.8 °F 33.8 °F 100% 30.12 in 1.5 mi Calm Calm - N/A   Unknown
5:55 AM - - N/A% 30.13 in 0.8 mi Calm Calm - N/A   Unknown
6:15 AM - - N/A% 30.13 in 10.0 mi Calm Calm - N/A   Clear
6:35 AM - - N/A% 30.13 in 10.0 mi Calm Calm - N/A   Clear
6:55 AM - - N/A% 30.15 in 10.0 mi Calm Calm - N/A   Clear
7:15 AM - - N/A% 30.15 in 10.0 mi Calm Calm - N/A   Clear
7:35 AM 33.8 °F 33.8 °F 100% 30.16 in 0.5 mi Calm Calm - N/A   Mostly Cloudy
7:55 AM - - N/A% 30.17 in 10.0 mi Calm Calm - N/A   Scattered Clouds
8:15 AM - - N/A% 30.18 in 10.0 mi Calm Calm - N/A   Clear
8:35 AM - - N/A% 30.18 in 10.0 mi Calm Calm - N/A   Clear
8:55 AM 44.6 °F 39.2 °F 81% 30.19 in 10.0 mi Calm Calm - N/A   Scattered Clouds
9:15 AM 46.4 °F 41.0 °F 81% 30.20 in 10.0 mi Calm Calm - N/A   Clear
9:35 AM 50.0 °F 35.6 °F 58% 30.21 in 10.0 mi Calm Calm - N/A   Clear
9:55 AM 51.8 °F 33.8 °F 50% 30.20 in 10.0 mi Calm Calm - N/A   Clear
10:15 AM 53.6 °F 32.0 °F 44% 30.20 in 10.0 mi NNE 5.8 mph - N/A   Clear
10:35 AM 55.4 °F 32.0 °F 41% 30.20 in 10.0 mi NNE 4.6 mph - N/A   Clear
10:55 AM 55.4 °F 28.4 °F 36% 30.20 in 10.0 mi North 3.5 mph - N/A   Clear
11:15 AM 57.2 °F 30.2 °F 36% 30.19 in 10.0 mi NE 6.9 mph - N/A   Clear
11:35 AM 57.2 °F 26.6 °F 31% 30.18 in 10.0 mi NNE 9.2 mph - N/A   Clear
11:55 AM 59.0 °F 28.4 °F 31% 30.18 in 10.0 mi Calm Calm - N/A   Clear
12:15 PM 59.0 °F 32.0 °F 36% 30.18 in 10.0 mi East 4.6 mph - N/A   Clear
12:35 PM 59.0 °F 32.0 °F 36% 30.17 in 10.0 mi Calm Calm - N/A   Clear
12:55 PM 59.0 °F 32.0 °F 36% 30.16 in 10.0 mi Calm Calm - N/A   Clear
1:15 PM 60.8 °F 32.0 °F 34% 30.15 in 10.0 mi NNE 4.6 mph - N/A   Clear
1:35 PM 60.8 °F 30.2 °F 31% 30.14 in 10.0 mi Calm Calm - N/A   Clear
1:55 PM 62.6 °F 32.0 °F 32% 30.13 in 10.0 mi NE 4.6 mph - N/A   Clear
2:15 PM 62.6 °F 28.4 °F 27% 30.13 in 10.0 mi Calm Calm - N/A   Clear
2:35 PM 62.6 °F 30.2 °F 30% 30.12 in 10.0 mi Calm Calm - N/A   Clear
2:55 PM 62.6 °F 23.0 °F 22% 30.12 in 10.0 mi Calm Calm - N/A   Clear
3:15 PM 62.6 °F 28.4 °F 27% 30.11 in 10.0 mi SSE 3.5 mph - N/A   Clear
3:35 PM 62.6 °F 26.6 °F 26% 30.11 in 10.0 mi Calm Calm - N/A   Clear
3:55 PM 62.6 °F 26.6 °F 26% 30.10 in 10.0 mi Calm Calm - N/A   Clear
4:15 PM 62.6 °F 26.6 °F 26% 30.10 in 10.0 mi Calm Calm - N/A   Clear
4:35 PM 62.6 °F 26.6 °F 26% 30.11 in 10.0 mi Calm Calm - N/A   Clear
4:55 PM 62.6 °F 24.8 °F 24% 30.11 in 10.0 mi Calm Calm - N/A   Clear
5:15 PM 60.8 °F 26.6 °F 27% 30.11 in 10.0 mi Calm Calm - N/A   Clear
5:35 PM 59.0 °F 28.4 °F 31% 30.10 in 10.0 mi Calm Calm - N/A   Clear
5:55 PM 53.6 °F 32.0 °F 44% 30.10 in 10.0 mi Calm Calm - N/A   Clear
6:15 PM 51.8 °F 32.0 °F 47% 30.11 in 10.0 mi Calm Calm - N/A   Clear
6:35 PM 48.2 °F 33.8 °F 58% 30.11 in 10.0 mi Calm Calm - N/A   Clear
6:55 PM 46.4 °F 33.8 °F 62% 30.12 in 10.0 mi Calm Calm - N/A   Clear
7:15 PM 44.6 °F 35.6 °F 71% 30.12 in 10.0 mi Calm Calm - N/A   Clear
7:35 PM 42.8 °F 37.4 °F 81% 30.13 in 10.0 mi Calm Calm - N/A   Clear
7:55 PM 42.8 °F 35.6 °F 76% 30.14 in 10.0 mi Calm Calm - N/A   Clear
8:15 PM 42.8 °F 35.6 °F 76% 30.13 in 10.0 mi Calm Calm - N/A   Clear
8:35 PM 41.0 °F 35.6 °F 81% 30.13 in 10.0 mi Calm Calm - N/A   Clear
8:55 PM 41.0 °F 35.6 °F 81% 30.14 in 10.0 mi Calm Calm - N/A   Clear
9:15 PM 39.2 °F 37.4 °F 93% 30.14 in 10.0 mi Calm Calm - N/A   Clear
9:35 PM 39.2 °F 37.4 °F 93% 30.15 in 10.0 mi Calm Calm - N/A   Clear
9:55 PM 37.4 °F 37.4 °F 100% 30.14 in 10.0 mi Calm Calm - N/A   Clear
10:15 PM 37.4 °F 37.4 °F 100% 30.14 in 10.0 mi Calm Calm - N/A   Clear
10:35 PM 37.4 °F 37.4 °F 100% 30.14 in 10.0 mi Calm Calm - N/A   Clear
10:55 PM 37.4 °F 37.4 °F 100% 30.13 in 10.0 mi Calm Calm - N/A   Clear
11:15 PM 35.6 °F 35.6 °F 100% 30.13 in 10.0 mi Calm Calm - N/A   Clear
11:35 PM 35.6 °F 35.6 °F 100% 30.13 in 10.0 mi Calm Calm - N/A   Clear
11:55 PM 35.6 °F 35.6 °F 100% 30.12 in 10.0 mi Calm Calm - N/A   Clear